SCP
1 1 1 1 1 0 0 0 0 0 0 0 0 0 0 0 0 0 0 0 0 0 0 0 0 0 0 0 0 0 0 0 0 0 0 0 0 0 0 0 0 0 0
1 1 1 1 0 0 0 0 0 0 0 0 0 0 0 0 0 0 0 0 0 0 0 0 0 0 0 0 0 0 0 0 0 0 0 0 0 0 0 0 0 0 0
1 1 1 1 0 0 0 0 0 0 0 0 0 0 0 0 0 0 0 0 0 0 0 0 0 0 0 0 0 0 0 0 0 0 0 0 0 0 0 0 0 0 0
0 0 0 0 0 0 0 0 0 0 0 0 0 0 0 0 0 0 0 0 0 0 0 0 0 0 0 0 0 0 0 0 0 0 0 0 0 0 0 0 0 0 0
0 0 0 0 0 0 0 0 0 0 0 0 0 0 0 0 0 0 0 0 0 0 0 0 0 0 0 0 0 0 0 0 0 0 0 0 0 0 0 0 0 0 0
0 0 0 0 0 0 0 0 0 0 0 0 0 0 0 0 0 0 0 0 0 0 0 0 0 0 0 0 0 0 0 0 0 0 0 0 0 0 0 0 0 0 0
0 0 0 0 0 0 0 0 0 0 0 0 0 0 0 0 0 0 0 0 0 0 0 0 0 0 0 0 0 0 0 0 0 0 0 0 0 0 0 0 0 0 0
0 0 0 0 0 0 0 0 0 0 0 0 0 0 0 0 0 0 0 0 0 0 0 0 0 0 0 0 0 0 0 0 0 0 0 0 0 0 0 0 0 0 0
0 0 0 0 0 0 0 0 0 0 0 0 0 0 0 0 0 0 0 0 0 0 0 0 0 0 0 0 0 0 0 0 0 0 0 0 0 0 0 0 0 0 0
0 0 0 0 0 0 0 0 0 0 0 0 0 0 0 0 0 0 0 0 0 0 0 0 0 0 0 0 0 0 0 0 0 0 0 0 0 0 0 0 0 0 0
0 0 0 0 0 0 0 0 0 0 0 0 0 0 0 0 0 0 0 0 0 0 0 0 0 0 0 0 0 0 0 0 0 0 0 0 0 0 0 0 0 0 0
0 0 0 0 0 0 0 0 0 0 0 0 0 0 0 0 0 0 0 0 0 0 0 0 0 0 0 0 0 0 0 0 0 0 0 0 0 0 0 0 0 0 0
0 0 0 0 0 0 0 0 0 0 0 0 0 0 0 0 0 0 0 0 0 0 0 0 0 0 0 0 0 0 0 0 0 0 0 0 0 0 0 0 0 0 0
0 0 0 0 0 0 0 0 0 0 0 0 0 0 0 0 0 0 0 0 0 0 0 0 0 0 0 0 0 0 0 0 0 0 0 0 0 0 0 0 0 0 0
0 0 0 0 0 0 0 0 0 0 0 0 0 0 0 0 0 0 0 0 0 0 0 0 0 0 0 0 0 0 0 0 0 0 0 0 0 0 0 0 0 0 0
0 0 0 0 0 0 0 0 0 0 0 0 0 0 0 0 0 0 0 0 0 0 0 0 0 0 0 0 0 0 0 0 0 0 0 0 0 0 0 0 0 0 0
0 0 0 0 0 0 0 0 0 0 0 0 0 0 0 0 0 0 0 0 0 0 0 0 0 0 0 0 0 0 0 0 0 0 0 0 0 0 0 0 0 0 0
0 0 0 0 0 0 0 0 0 0 0 0 0 0 0 0 0 0 0 0 0 0 0 0 0 0 0 0 0 0 0 0 0 0 0 0 0 0 0 0 0 0 0
0 0 0 0 0 0 0 0 0 0 0 0 0 0 0 0 0 0 0 0 0 0 0 0 0 0 0 0 0 0 0 0 0 0 0 0 0 0 0 0 0 0 0
0 0 0 0 0 0 0 0 0 0 0 0 0 0 0 0 0 0 0 0 0 0 0 0 0 0 0 0 0 0 0 0 0 0 0 0 0 0 0 0 0 0 0
0 0 0 0 0 0 0 0 0 0 0 0 0 0 0 0 0 0 0 0 0 0 0 0 0 0 0 0 0 0 0 0 0 0 0 0 0 0 0 0 0 0 0
0 0 0 0 0 0 0 0 0 0 0 0 0 0 0 0 0 0 0 0 0 0 0 0 0 0 0 0 0 0 0 0 0 0 0 0 0 0 0 0 0 0 0
0 0 0 0 0 0 0 0 0 0 0 0 0 0 0 0 0 0 0 0 0 0 0 0 0 0 0 0 0 0 0 0 0 0 0 0 0 0 0 0 0 0 0
0 0 0 0 0 0 0 0 0 0 0 0 0 0 0 0 0 0 0 0 0 0 0 0 0 0 0 0 0 0 0 0 0 0 0 0 0 0 0 0 0 0 0
0 0 0 0 0 0 0 0 0 0 0 0 0 0 0 0 0 0 0 0 0 0 0 0 0 0 0 0 0 0 0 0 0 0 0 0 0 0 0 0 0 0 0
0 0 0 0 0 0 0 0 0 0 0 0 0 0 0 0 0 0 0 0 0 0 0 0 0 0 0 0 0 0 0 0 0 0 0 0 0 0 0 0 0 0 0
Wind_Speed
0 0 1 1 1 1 1 2 3 3 2 2 2 2 2 3 3 2 2 3 3 3 3 3 3 4 3 3 3 3 3 4 6 7 4 4 5 6 6 6 6 6 7
1 0 0 1 1 1 2 2 2 2 2 2 2 2 2 2 2 2 2 3 2 3 3 3 4 3 4 3 3 4 4 4 5 8 7 5 6 6 6 7 7 7 7
0 0 0 1 1 1 2 2 2 2 2 2 2 2 2 2 2 2 2 2 3 3 3 3 4 4 4 4 4 4 4 4 4 6 8 6 5 5 6 7 6 5 7
1 1 1 1 1 2 1 2 2 2 2 2 2 2 2 2 2 2 2 2 3 3 3 3 4 4 4 5 4 5 4 5 5 6 7 6 6 5 5 6 7 5 7
1 1 1 1 1 1 1 1 1 2 2 2 2 2 2 2 2 2 2 2 3 3 4 4 4 5 6 6 5 5 5 4 5 6 6 6 6 6 6 6 7 7 6
1 1 1 0 0 1 1 1 2 2 2 2 2 2 2 2 3 4 3 3 3 3 4 5 4 5 6 8 8 8 7 6 6 6 6 7 8 7 7 6 7 7 7
1 1 0 0 1 1 1 1 2 2 2 2 2 2 3 3 4 5 4 3 3 4 4 4 4 4 5 5 7 8 8 8 8 7 7 7 8 7 7 7 6 7 8
1 1 1 1 1 1 1 1 2 2 2 2 2 3 3 4 5 5 5 3 3 4 4 5 5 5 5 6 6 6 6 5 6 5 5 6 6 7 6 7 8 8 7
2 2 2 2 2 1 2 2 2 2 2 2 2 3 3 5 6 6 6 3 3 4 5 5 5 5 7 9 6 6 6 6 7 8 8 9 11 10 8 4 4 5 6
4 3 2 2 2 3 3 3 2 2 2 3 3 3 4 4 6 6 6 3 4 4 4 5 6 7 8 9 6 5 6 6 6 6 7 8 7 7 8 4 4 4 5
2 2 2 2 3 3 2 2 2 2 2 3 4 4 4 4 6 7 7 3 4 4 4 4 4 8 9 10 8 5 7 7 4 4 4 5 4 4 4 4 4 4 5
2 2 3 2 2 2 2 2 1 1 2 3 3 4 4 4 5 7 8 7 6 5 5 4 5 9 10 10 7 8 9 6 3 3 4 4 4 4 4 5 6 6 6
2 3 3 2 2 2 3 3 2 2 2 3 3 4 5 3 5 8 8 9 9 6 5 8 9 10 9 7 8 9 6 3 3 3 4 5 4 5 5 5 5 5 6
3 4 3 3 3 2 3 3 3 3 3 4 4 4 5 4 4 4 4 5 6 6 5 6 8 8 7 6 5 5 3 3 3 4 4 5 4 4 4 4 5 5 5
4 3 3 3 3 3 3 4 5 5 6 5 5 4 5 6 7 8 6 4 4 4 4 2 2 3 3 3 3 3 3 3 3 3 4 4 4 4 4 4 4 4 4
4 4 3 3 3 3 3 4 8 8 9 11 10 8 7 9 11 10 10 10 9 7 3 2 3 3 4 4 4 4 4 3 3 3 4 4 4 5 5 4 4 4 5
6 5 3 3 4 4 3 4 5 6 9 11 11 12 11 11 11 11 10 9 8 5 2 3 4 4 5 4 4 4 4 4 3 3 4 4 4 4 5 5 5 5 5
6 5 5 4 4 4 4 4 4 4 5 5 7 11 12 11 11 11 10 6 4 3 3 5 5 5 5 5 5 4 4 4 3 4 4 4 4 4 5 5 5 5 6
5 4 4 4 3 3 3 4 4 5 5 6 5 6 8 10 10 9 6 3 4 5 5 5 5 5 5 5 5 4 4 4 4 4 4 4 4 4 5 5 5 7 6
5 6 4 3 3 3 4 4 4 5 5 6 6 6 3 3 4 5 4 4 5 6 6 6 6 5 5 5 4 4 4 4 4 4 4 4 4 4 5 6 5 5 5
4 4 5 4 4 4 4 5 5 5 6 6 6 7 8 5 5 6 5 5 6 6 6 6 5 5 5 4 4 4 5 5 4 4 4 4 4 4 5 5 5 5 5
3 4 4 4 4 4 4 5 5 6 6 7 6 6 9 5 5 6 6 6 6 6 5 5 5 5 5 5 5 5 5 5 5 5 4 4 4 4 4 4 5 5 5
3 3 4 4 4 5 5 5 5 6 6 6 6 5 5 5 6 6 6 6 5 5 5 5 5 5 5 5 5 5 6 6 6 5 5 5 4 4 4 5 5 5 5
3 4 4 4 4 4 5 5 5 6 6 6 6 6 6 6 6 7 6 5 5 5 5 5 6 7 8 6 5 5 6 6 5 5 7 5 5 4 4 5 5 6 5
3 3 4 4 5 5 5 5 5 6 6 5 5 5 5 6 6 6 6 5 6 6 6 6 5 6 8 9 8 7 8 9 7 5 5 5 5 5 5 5 5 5 5
3 4 4 4 4 4 4 5 5 5 5 5 5 5 5 6 6 6 5 5 5 6 6 6 6 7 8 7 9 9 9 9 8 7 5 4 5 5 5 5 6 5 5
Wind_Direction
261 304 343 331 344 349 330 317 312 317 322 325 321 328 335 345 349 356 352 346 353 347 343 341 333 327 325 326 319 306 298 286 281 292 293 302 300 304 309 306 304 303 308
229 1 326 339 345 338 316 314 326 335 336 334 335 341 343 347 343 345 343 340 341 336 330 331 328 327 323 318 313 305 299 292 282 290 297 300 300 301 302 303 309 311 308
188 185 279 329 328 309 310 326 338 334 335 338 342 338 336 339 341 336 335 330 326 318 317 316 313 313 311 307 303 298 296 296 287 287 296 298 298 303 304 302 302 302 308
184 202 241 265 267 281 306 321 328 332 334 334 331 330 329 330 332 331 329 327 322 321 318 312 308 305 301 298 295 293 295 296 295 292 294 299 302 305 305 310 312 313 310
175 220 252 263 266 301 320 327 334 336 327 324 333 340 332 323 326 327 326 321 318 319 317 312 307 304 303 299 298 300 300 297 298 295 295 302 306 316 312 312 307 310 302
181 234 274 324 321 301 310 330 340 333 330 331 328 328 315 309 318 320 325 324 317 312 310 310 307 301 303 306 306 306 305 300 298 294 293 297 302 304 305 307 308 313 309
199 224 242 274 289 292 304 327 324 317 323 322 320 321 308 307 313 320 323 318 308 301 300 303 303 304 303 306 308 309 309 304 298 290 289 290 295 301 303 301 298 295 290
205 224 232 245 272 297 302 300 309 313 309 311 316 310 311 309 313 318 319 312 302 297 294 291 291 299 303 306 304 305 303 303 301 294 282 289 294 297 290 289 290 290 285
223 235 236 232 251 268 273 283 297 304 304 305 307 303 302 305 312 316 320 311 303 299 298 297 290 289 298 303 303 301 302 304 310 306 301 303 308 313 313 308 306 303 298
232 239 240 236 237 247 260 277 295 291 288 299 297 298 293 294 304 307 311 302 297 300 299 297 297 299 303 304 299 294 297 300 306 312 313 314 312 312 315 305 291 286 291
231 232 239 239 243 249 263 275 277 281 296 294 294 299 292 288 294 300 304 298 291 295 295 297 298 303 304 306 307 299 295 301 306 310 311 314 316 314 314 309 296 281 276
209 225 237 240 245 249 248 261 265 263 279 287 293 296 290 288 290 295 298 295 298 290 289 292 295 303 306 309 310 309 312 319 319 313 308 307 308 309 311 309 300 290 276
213 233 240 242 243 241 233 238 245 241 250 267 274 282 289 290 287 291 292 293 295 291 286 291 298 302 306 308 314 319 326 327 315 307 302 302 305 307 310 308 302 296 291
223 238 236 234 244 241 238 232 229 234 242 252 260 268 279 283 277 280 279 284 290 290 291 296 299 302 305 311 318 318 319 308 295 294 299 303 310 313 312 312 309 314 311
229 236 239 237 239 244 245 239 238 236 234 243 246 249 261 272 275 284 288 283 282 281 299 303 308 310 310 310 313 312 312 312 307 305 301 302 305 307 306 311 304 306 301
230 236 234 234 237 239 250 269 260 258 264 262 262 265 264 271 288 288 288 291 295 297 300 280 281 284 284 290 295 300 299 298 300 301 296 294 299 301 304 307 303 301 299
223 232 232 230 230 235 241 253 276 280 268 268 269 271 272 280 283 286 287 290 293 299 277 270 268 270 273 276 277 280 284 287 290 287 287 292 295 297 300 303 305 304 299
225 229 227 230 231 231 235 242 250 263 280 280 275 273 276 278 280 284 288 290 281 271 255 260 263 265 265 266 268 271 275 280 280 281 283 285 286 289 294 298 299 298 299
224 231 229 231 233 236 239 243 247 252 260 274 285 283 277 279 279 278 279 249 253 257 255 257 258 259 260 260 260 261 261 264 268 272 274 278 279 279 283 287 290 293 294
231 233 227 225 231 236 237 240 246 250 257 263 266 270 274 264 258 261 245 240 245 252 254 257 258 256 255 254 254 254 258 260 262 262 267 270 271 272 277 282 285 290 291
230 231 222 225 230 232 235 239 243 247 252 257 260 262 263 256 254 255 251 246 245 251 254 256 257 255 252 250 246 247 249 255 255 256 261 265 267 271 276 279 282 282 286
225 228 223 228 234 235 238 241 243 247 253 259 268 272 269 260 254 256 255 254 252 251 250 250 253 250 245 241 239 241 247 252 253 254 258 262 265 269 275 278 283 288 289
227 231 236 239 237 241 245 245 245 248 254 257 261 264 263 256 255 257 258 258 258 257 252 247 251 255 250 243 236 231 237 243 243 242 250 258 263 266 270 275 279 285 287
231 234 238 241 240 241 245 250 251 252 254 257 259 260 260 260 261 262 264 264 262 260 256 252 249 251 252 252 247 240 239 240 238 238 237 242 254 262 264 271 273 274 279
234 239 243 245 244 246 250 253 254 256 257 258 261 265 266 266 266 267 266 264 263 263 263 260 256 252 248 250 253 250 247 248 247 242 235 235 241 250 258 265 269 276 276
240 245 250 253 254 252 251 255 257 258 259 262 262 263 265 266 267 268 269 267 267 268 267 264 258 257 257 255 254 257 254 250 246 240 231 229 234 245 252 262 268 272 275